Wind_Speed
5 3 6 5 11 15 19 20 19 13 16 18 18 18 14 13 16 15 16 13 13 14 16 16 17 16 16 14 15 15 15 16 17 17 18 20 20 21 21 22 23 23 24 24 24 26 25 25 25
4 5 4 5 10 17 18 18 20 15 14 17 18 17 13 11 13 12 14 15 15 15 15 15 15 15 14 14 15 14 15 16 17 19 21 21 20 20 21 22 23 23 23 23 24 24 25 25 25
13 3 4 9 13 17 14 13 13 11 10 11 13 14 10 12 12 13 15 15 16 16 15 15 12 12 12 12 13 14 14 16 17 17 18 19 20 22 23 22 21 21 22 23 23 23 23 24 25
13 8 11 10 15 16 14 13 8 3 5 8 7 7 12 12 13 12 15 17 16 16 17 18 17 16 15 14 14 13 14 16 19 21 22 24 25 24 23 22 22 22 23 23 24 25 25 26 27
14 16 16 15 16 13 12 13 12 6 2 1 4 7 14 13 10 13 16 17 16 18 19 20 20 20 17 16 15 16 17 20 22 23 24 24 24 24 23 22 22 22 23 23 23 23 23 24 24
14 17 16 19 18 18 18 13 8 7 5 3 7 11 10 9 15 18 17 18 19 20 20 20 20 18 17 17 16 17 19 20 21 22 22 23 24 23 21 22 22 21 22 22 23 24 24 23 21
16 16 15 16 21 23 22 22 13 10 9 13 14 15 14 16 14 13 15 16 19 20 20 21 20 19 19 18 17 17 19 21 22 24 23 22 20 20 20 21 22 23 22 21 21 21 22 22 22
15 15 13 15 18 20 23 24 24 18 16 14 14 17 16 14 16 16 15 15 17 20 21 22 20 20 20 22 23 22 21 22 24 26 26 22 18 17 19 20 21 22 22 21 21 21 20 20 20
16 19 16 14 14 17 19 22 22 18 14 13 15 15 15 15 14 15 17 16 17 20 23 23 23 22 21 21 22 23 23 25 27 28 28 26 22 18 19 19 20 21 22 22 21 21 20 20 20
19 18 16 16 14 18 21 20 19 13 14 13 14 14 14 14 15 17 19 19 21 23 23 22 22 22 21 21 21 22 23 25 26 27 28 28 24 20 19 21 21 20 21 21 22 23 22 22 22
20 20 19 16 12 15 17 16 13 12 13 13 12 12 13 17 17 19 21 23 24 24 23 22 22 23 23 22 23 23 24 24 25 26 27 29 27 23 21 20 21 22 23 23 22 21 22 24 25
16 20 18 16 13 14 19 19 13 11 13 15 14 17 18 20 20 21 22 21 20 21 23 22 22 22 23 24 24 23 24 25 25 26 27 28 27 25 24 24 23 24 25 24 24 23 23 24 26
18 22 23 20 17 15 18 19 17 15 12 13 15 16 17 18 18 18 18 17 17 19 20 22 23 23 24 25 25 26 26 26 27 26 26 27 27 27 27 27 26 26 27 26 25 23 24 24 24
15 20 23 25 20 16 17 15 15 16 16 18 18 17 16 18 19 18 18 18 18 18 20 22 23 23 25 26 26 26 26 27 27 28 27 27 28 27 26 26 25 25 25 27 27 26 26 27 25
23 18 19 17 19 12 13 12 12 13 13 17 19 17 20 20 20 19 18 16 17 19 20 22 23 24 25 25 27 28 26 27 27 28 28 28 28 28 28 27 26 26 25 25 28 26 26 27 26
25 23 27 19 20 15 8 12 14 12 13 16 20 21 22 22 19 19 16 17 17 19 20 22 24 25 26 26 26 29 30 30 30 30 29 29 28 27 28 28 27 26 26 26 27 28 27 28 28
19 26 23 17 17 16 9 10 10 10 11 13 16 19 20 20 18 18 17 18 18 19 21 21 23 25 27 28 29 30 31 32 30 29 29 29 29 29 29 27 27 27 26 26 26 27 27 28 28
21 26 20 18 22 22 12 10 16 10 11 12 10 13 16 18 18 17 19 19 18 19 21 23 25 27 27 28 28 29 29 30 31 31 29 28 30 30 30 29 28 27 27 26 26 26 28 29 29
20 27 14 16 21 28 25 23 13 5 11 17 19 12 13 16 17 17 18 20 20 20 22 23 26 27 28 30 29 28 28 28 29 30 32 30 29 31 31 32 29 26 27 27 26 26 27 27 28
18 22 16 20 27 23 24 29 16 9 9 13 17 16 14 16 21 19 20 23 24 23 24 25 25 27 29 31 31 31 31 29 29 30 31 31 29 29 29 29 30 27 26 26 26 26 26 28 28
18 21 18 24 22 17 20 22 22 25 22 16 9 16 19 19 18 23 20 23 27 24 23 24 27 27 30 30 32 34 29 29 28 28 29 28 28 30 30 29 30 28 24 25 26 26 26 26 28
14 18 18 18 20 20 22 24 17 21 27 16 13 20 33 33 23 22 20 28 27 23 24 27 26 24 29 30 32 31 30 28 29 30 30 30 30 31 31 30 29 27 25 25 26 26 27 27 27
15 18 21 20 21 21 22 24 19 21 18 13 14 26 23 32 21 23 27 26 25 22 21 24 25 25 29 30 30 28 28 28 30 31 31 30 32 33 32 29 30 28 26 27 28 27 29 27 27
16 20 23 24 26 21 25 25 25 21 17 16 24 28 29 28 25 28 26 38 32 19 21 24 23 28 32 29 29 29 29 30 31 32 33 33 34 34 33 31 30 26 26 28 29 32 31 28 26
17 22 25 25 25 30 21 25 27 19 19 28 34 32 31 31 21 27 32 31 23 19 20 16 25 28 24 24 27 27 29 30 31 32 34 33 33 34 33 32 29 28 28 29 30 36 31 30 27
17 21 26 26 26 25 18 25 21 19 22 30 32 37 38 36 34 29 34 39 24 25 26 23 17 18 21 23 27 29 28 31 32 35 34 35 33 31 31 30 29 29 30 29 31 33 32 33 29
12 18 18 21 21 18 17 19 13 17 22 31 34 39 39 36 33 29 34 32 19 16 21 22 14 21 23 24 27 29 32 34 35 34 33 33 32 30 30 29 29 30 31 31 32 36 37 35 32
18 22 27 23 21 21 16 20 21 23 29 35 39 40 40 38 35 29 30 23 17 22 21 24 20 27 26 26 28 31 34 35 34 31 33 35 33 30 30 29 29 31 32 34 36 37 40 41 35
20 27 28 26 23 25 28 19 26 24 32 32 35 39 37 34 31 25 26 24 23 19 19 22 24 28 27 29 29 31 33 33 31 31 32 33 33 33 33 31 33 33 35 35 36 38 38 41 33
23 28 34 27 28 25 28 26 23 23 29 32 34 36 35 34 31 30 31 24 23 17 19 21 25 29 30 30 30 32 32 32 30 32 33 34 35 34 35 34 35 35 36 35 34 34 36 33 34
Wind_Direction
94 20 348 56 18 33 43 28 19 13 7 9 22 32 37 38 32 20 9 6 352 339 339 340 335 333 329 329 321 318 316 317 315 315 316 314 311 306 304 300 295 291 287 286 283 282 280 276 272
317 274 330 14 35 45 49 38 39 24 2 348 7 35 40 29 25 10 1 353 342 343 335 336 337 334 337 337 325 324 321 320 317 314 311 309 308 307 310 303 298 291 287 284 282 282 282 282 277
345 242 35 15 7 8 54 45 44 19 350 319 343 15 25 22 359 352 355 349 351 354 3 11 4 1 356 343 343 347 342 336 333 334 334 326 320 319 314 309 300 295 291 286 283 280 279 278 277
67 54 29 23 7 19 58 83 126 147 279 305 326 4 17 11 354 341 351 4 6 11 22 21 20 17 11 7 5 359 348 345 343 341 332 326 321 316 313 309 304 300 297 293 287 283 279 276 274
61 48 40 29 29 25 55 105 146 168 149 329 347 11 353 351 353 5 12 11 10 11 17 17 16 14 9 4 3 356 352 350 346 341 337 333 326 321 318 311 305 300 297 294 292 287 282 278 276
74 58 50 33 21 30 44 67 121 133 138 277 4 345 10 6 8 14 14 8 7 12 12 14 11 6 3 4 0 355 347 345 342 336 338 333 327 321 318 315 313 309 302 298 293 290 286 281 279
60 75 51 17 20 32 42 50 52 40 31 19 25 32 30 23 18 19 13 12 14 12 11 12 7 3 358 352 350 352 348 343 342 340 340 338 333 330 331 330 325 319 313 305 297 292 289 286 282
54 60 53 18 27 31 40 51 55 52 44 26 23 32 33 23 23 18 13 14 13 12 14 11 6 1 356 351 345 347 345 343 345 346 345 342 342 336 334 334 331 326 321 315 310 304 299 292 288
59 61 61 48 51 43 48 49 50 41 44 41 38 36 34 21 18 16 10 4 10 13 14 7 3 359 356 350 343 340 339 340 343 348 347 344 339 335 336 337 333 329 328 322 314 307 302 296 293
53 40 46 50 59 66 59 53 54 42 41 54 47 37 32 23 21 16 10 8 5 10 10 6 3 1 358 351 343 337 337 337 339 343 343 343 335 331 328 329 331 335 331 325 318 312 307 301 298
55 45 44 33 52 65 73 66 47 28 38 54 50 42 31 26 17 13 9 8 6 1 360 360 359 357 356 354 348 345 341 337 333 338 338 338 337 328 320 320 326 330 329 328 324 318 311 304 301
57 48 47 42 19 37 37 50 34 19 18 34 37 28 23 22 16 10 9 4 1 357 356 356 358 358 357 356 350 350 347 340 338 336 334 334 333 329 320 316 317 322 325 324 321 321 317 311 308
82 48 38 38 27 18 11 24 25 24 26 22 24 29 19 12 12 6 1 354 355 357 354 355 355 356 359 358 352 350 350 347 343 341 334 329 329 328 321 319 320 318 321 324 321 320 319 315 310
72 34 15 20 24 24 28 24 24 28 24 14 9 18 15 4 359 355 356 351 350 352 354 353 350 350 356 356 352 351 351 348 345 342 338 332 327 326 323 322 321 322 325 325 323 322 324 323 317
29 24 17 14 21 26 24 24 34 37 34 34 15 5 4 357 351 348 351 345 345 351 354 352 349 351 354 354 349 346 347 348 346 342 338 335 330 327 323 323 323 323 325 326 322 322 324 324 320
18 6 7 15 16 1 32 33 25 30 23 26 27 5 1 352 346 338 345 342 345 347 347 347 348 349 349 348 347 342 344 346 345 344 340 336 333 330 327 325 324 325 324 324 322 321 324 326 323
11 8 4 11 11 11 346 25 9 6 17 19 22 15 357 343 338 330 332 336 340 341 341 343 345 346 347 346 346 343 341 339 339 337 338 339 336 333 329 328 325 323 323 323 322 320 320 324 324
7 4 0 359 358 358 354 303 330 347 7 1 7 14 350 334 328 329 332 330 329 334 336 336 339 341 341 342 339 336 336 335 335 334 335 335 336 335 332 331 325 323 324 323 320 319 321 324 324
4 353 348 349 352 357 3 6 311 312 2 348 347 354 337 321 319 325 327 318 320 326 330 332 333 337 337 336 334 330 330 332 334 334 332 333 333 334 333 333 327 326 324 325 323 318 317 320 322
350 350 351 7 1 356 2 360 0 339 318 302 330 330 332 322 312 313 314 314 318 324 328 331 333 334 334 333 331 331 326 331 334 332 332 331 330 331 328 324 329 326 325 325 324 321 319 320 323
339 340 348 354 351 345 349 344 343 342 338 305 309 322 318 314 311 308 312 316 322 328 324 324 334 322 328 334 332 335 334 336 334 332 331 329 327 331 328 325 330 326 325 328 328 325 322 321 323
342 337 332 345 342 326 331 340 358 4 17 24 3 343 358 356 331 305 313 318 316 321 325 326 335 336 327 331 334 332 337 338 336 335 333 331 331 332 329 325 323 325 324 330 332 329 325 322 322
327 325 322 324 332 327 323 330 347 358 353 18 18 18 14 3 351 350 336 337 312 319 317 313 325 329 326 332 336 339 340 341 341 339 336 334 331 329 328 326 321 322 324 326 329 328 325 326 325
301 310 313 318 319 327 329 335 334 343 347 347 6 1 13 1 343 341 341 333 319 304 303 313 331 330 328 334 337 339 338 340 341 339 335 333 329 328 325 325 321 319 319 322 327 326 330 326 324
292 297 301 307 321 330 328 325 325 331 337 356 3 2 11 358 2 356 334 320 294 300 277 318 338 331 339 340 338 338 339 339 337 337 340 337 334 329 324 322 320 318 319 321 321 327 326 326 321
315 292 295 316 334 340 338 326 344 350 344 353 350 1 356 352 353 357 344 336 325 300 292 319 332 347 348 346 342 338 337 337 335 334 335 334 333 329 328 326 327 327 322 319 318 324 325 323 318
325 324 326 333 338 341 339 347 3 351 348 357 354 354 347 354 6 360 8 8 7 328 317 308 344 347 341 344 338 332 336 338 335 335 339 337 336 336 336 334 330 325 321 320 318 316 322 327 317
320 326 320 316 331 333 337 336 338 352 347 0 354 349 350 358 5 15 1 360 360 341 323 319 324 347 337 339 338 333 333 335 333 336 339 338 336 331 331 329 328 324 323 323 321 317 317 325 321
318 317 321 315 312 323 324 329 332 340 345 352 348 347 351 351 360 356 355 347 355 340 334 325 329 333 336 336 334 328 331 331 329 333 337 338 338 332 329 330 328 330 330 327 323 318 316 316 317
310 309 310 301 308 317 323 334 320 334 341 343 345 341 347 349 352 355 352 2 354 350 338 334 331 329 332 336 334 332 328 328 328 330 333 335 334 331 331 328 329 332 335 335 331 327 326 327 322
Height
5919 5919 5919 5919 5921 5916 5912 5911 5907 5906 5906 5906 5907 5908 5906 5904 5903 5904 5900 5899 5897 5895 5892 5889 5887 5885 5884 5882 5881 5879 5878 5876 5874 5872 5869 5866 5864 5862 5860 5857 5855 5852 5850 5848 5847 5846 5845 5845 5845
5920 5920 5921 5922 5921 5919 5914 5911 5909 5909 5909 5907 5906 5906 5906 5905 5904 5903 5901 5899 5898 5895 5892 5889 5886 5884 5882 5880 5879 5877 5876 5874 5872 5870 5867 5865 5862 5860 5857 5854 5851 5848 5847 5846 5844 5843 5842 5841 5841
5919 5918 5921 5922 5921 5918 5913 5911 5911 5911 5910 5908 5908 5908 5907 5906 5904 5902 5902 5900 5896 5894 5891 5887 5885 5882 5880 5878 5877 5875 5874 5872 5870 5868 5865 5862 5859 5856 5853 5851 5848 5846 5844 5842 5841 5840 5839 5839 5837
5921 5922 5923 5925 5923 5918 5913 5910 5910 5910 5909 5909 5909 5909 5910 5907 5906 5905 5902 5899 5897 5895 5891 5888 5885 5883 5880 5878 5876 5874 5872 5871 5868 5866 5862 5859 5856 5853 5850 5847 5844 5842 5840 5839 5837 5836 5835 5834 5833
5922 5925 5924 5924 5921 5917 5912 5909 5909 5909 5909 5909 5910 5911 5910 5909 5906 5905 5902 5900 5898 5893 5890 5887 5885 5882 5881 5878 5876 5874 5872 5869 5866 5863 5860 5856 5853 5849 5846 5844 5842 5839 5837 5835 5833 5832 5830 5829 5829
5925 5925 5924 5923 5921 5916 5912 5910 5910 5910 5909 5909 5912 5912 5910 5909 5906 5904 5903 5901 5898 5894 5891 5888 5885 5882 5880 5878 5876 5873 5871 5868 5865 5861 5858 5854 5850 5846 5843 5840 5838 5835 5833 5831 5828 5827 5826 5824 5824
5929 5925 5924 5923 5920 5917 5913 5912 5913 5914 5914 5914 5914 5911 5911 5909 5908 5907 5906 5903 5899 5896 5892 5889 5886 5882 5879 5876 5875 5872 5869 5867 5864 5860 5855 5851 5847 5843 5840 5838 5835 5832 5829 5827 5825 5823 5822 5820 5819
5931 5927 5925 5925 5923 5922 5918 5917 5916 5917 5917 5917 5914 5912 5911 5910 5909 5907 5905 5903 5900 5896 5893 5889 5887 5884 5880 5875 5872 5870 5868 5865 5862 5858 5853 5849 5845 5841 5838 5835 5832 5829 5827 5824 5822 5819 5818 5817 5815
5932 5929 5928 5927 5925 5923 5922 5919 5918 5919 5919 5917 5914 5912 5912 5911 5908 5906 5904 5901 5900 5896 5892 5889 5886 5883 5880 5876 5871 5869 5866 5862 5859 5855 5851 5847 5844 5840 5836 5833 5830 5827 5824 5821 5819 5816 5815 5813 5811
5932 5930 5930 5929 5927 5925 5922 5922 5920 5921 5921 5919 5916 5913 5912 5910 5906 5902 5898 5896 5894 5892 5891 5889 5886 5883 5879 5875 5872 5868 5864 5860 5857 5853 5848 5845 5841 5839 5835 5831 5828 5825 5822 5818 5815 5812 5810 5808 5807
5934 5934 5933 5933 5931 5928 5923 5921 5922 5923 5922 5920 5918 5916 5915 5911 5908 5905 5901 5896 5893 5892 5891 5889 5887 5883 5879 5875 5870 5866 5862 5858 5854 5851 5847 5843 5839 5836 5832 5829 5826 5822 5819 5815 5812 5809 5806 5804 5802
5937 5937 5936 5935 5934 5932 5928 5925 5925 5925 5924 5922 5920 5917 5914 5910 5908 5904 5899 5897 5896 5894 5891 5889 5886 5882 5877 5872 5868 5865 5860 5856 5851 5848 5844 5841 5837 5833 5829 5826 5823 5819 5815 5812 5808 5805 5801 5798 5796
5940 5939 5936 5935 5933 5931 5929 5928 5928 5926 5924 5921 5918 5915 5913 5911 5907 5905 5904 5901 5897 5893 5890 5886 5882 5879 5875 5871 5866 5862 5858 5853 5848 5845 5841 5837 5834 5830 5825 5821 5818 5815 5811 5808 5804 5800 5797 5794 5792
5941 5939 5937 5935 5932 5931 5929 5931 5930 5927 5924 5920 5917 5915 5911 5910 5909 5907 5905 5902 5897 5894 5889 5885 5881 5877 5871 5867 5863 5859 5855 5851 5846 5842 5839 5834 5829 5825 5821 5817 5813 5810 5807 5803 5799 5795 5792 5788 5786
5942 5943 5939 5937 5934 5932 5931 5931 5928 5927 5924 5921 5917 5914 5912 5911 5909 5907 5905 5902 5898 5893 5889 5885 5881 5876 5871 5867 5863 5859 5854 5850 5845 5840 5836 5831 5827 5821 5817 5813 5808 5805 5802 5798 5794 5791 5788 5784 5780
5943 5941 5940 5939 5937 5936 5933 5930 5928 5927 5924 5920 5917 5913 5911 5911 5909 5907 5904 5901 5897 5892 5888 5884 5880 5875 5871 5867 5863 5857 5852 5848 5843 5837 5833 5828 5824 5818 5813 5809 5805 5800 5797 5793 5789 5786 5783 5779 5775
5946 5944 5942 5940 5939 5938 5936 5932 5928 5926 5924 5922 5920 5916 5913 5909 5907 5904 5901 5898 5894 5890 5886 5882 5878 5873 5868 5865 5860 5854 5849 5844 5839 5835 5830 5825 5820 5815 5810 5805 5800 5796 5792 5788 5784 5780 5777 5774 5770
5946 5946 5944 5940 5939 5937 5935 5932 5930 5928 5925 5922 5920 5917 5914 5910 5906 5901 5898 5895 5891 5887 5883 5879 5875 5871 5867 5862 5858 5853 5848 5843 5837 5831 5826 5821 5816 5812 5807 5802 5796 5791 5787 5783 5779 5775 5772 5768 5763
5946 5946 5944 5942 5938 5934 5931 5928 5928 5926 5925 5924 5921 5916 5913 5909 5903 5897 5892 5891 5888 5884 5880 5876 5873 5869 5865 5860 5855 5850 5844 5839 5833 5827 5822 5818 5813 5807 5802 5798 5792 5787 5782 5778 5774 5770 5766 5763 5759
5946 5947 5944 5942 5937 5934 5931 5928 5927 5924 5922 5919 5918 5916 5913 5908 5903 5894 5890 5887 5886 5882 5878 5874 5869 5866 5861 5856 5852 5846 5840 5835 5830 5824 5819 5814 5809 5803 5798 5793 5787 5782 5777 5773 5769 5766 5761 5756 5753
5946 5944 5943 5939 5936 5934 5932 5931 5926 5924 5916 5914 5915 5916 5911 5906 5901 5894 5888 5884 5880 5878 5873 5869 5865 5861 5856 5851 5846 5841 5835 5830 5826 5821 5815 5808 5804 5799 5793 5788 5783 5778 5773 5769 5764 5760 5757 5753 5748
5944 5943 5942 5939 5937 5935 5932 5930 5927 5922 5917 5916 5914 5912 5906 5901 5896 5894 5888 5881 5876 5873 5869 5863 5859 5855 5852 5847 5842 5837 5831 5826 5821 5817 5811 5806 5800 5794 5789 5784 5779 5774 5769 5764 5760 5756 5751 5747 5744
5945 5943 5942 5939 5936 5934 5931 5928 5926 5922 5919 5916 5914 5911 5904 5899 5894 5892 5885 5879 5873 5870 5863 5859 5855 5851 5848 5844 5839 5833 5828 5823 5817 5812 5807 5801 5796 5790 5785 5780 5775 5770 5765 5759 5755 5751 5747 5742 5738
5943 5941 5940 5937 5935 5932 5928 5925 5922 5920 5918 5915 5913 5907 5900 5897 5892 5887 5882 5877 5869 5866 5859 5855 5852 5848 5844 5840 5836 5829 5823 5818 5812 5808 5802 5797 5791 5785 5780 5775 5770 5765 5760 5756 5751 5747 5742 5737 5733
5941 5939 5938 5936 5932 5928 5924 5921 5918 5915 5913 5913 5907 5903 5897 5896 5889 5884 5878 5870 5860 5860 5848 5849 5847 5843 5840 5835 5831 5826 5820 5815 5809 5804 5799 5793 5787 5781 5776 5770 5765 5760 5756 5751 5746 5742 5737 5732 5728
5939 5938 5936 5932 5929 5925 5921 5917 5916 5914 5912 5908 5904 5896 5893 5890 5883 5879 5871 5862 5852 5853 5845 5839 5842 5840 5835 5831 5827 5823 5817 5811 5806 5800 5793 5788 5782 5777 5771 5766 5760 5755 5751 5746 5742 5737 5732 5727 5722
5938 5936 5935 5932 5929 5925 5922 5919 5915 5912 5908 5904 5898 5896 5892 5885 5879 5874 5865 5854 5853 5850 5846 5841 5837 5834 5832 5826 5823 5818 5812 5807 5802 5796 5789 5783 5778 5773 5767 5761 5756 5751 5746 5740 5736 5731 5727 5723 5718
5936 5935 5932 5931 5927 5924 5922 5918 5915 5911 5904 5901 5897 5892 5886 5879 5874 5870 5865 5861 5854 5850 5846 5845 5840 5837 5832 5824 5819 5814 5808 5802 5799 5793 5786 5780 5774 5768 5762 5757 5751 5746 5740 5735 5730 5726 5721 5716 5712
5934 5932 5929 5927 5926 5923 5919 5919 5913 5909 5903 5899 5895 5889 5884 5879 5873 5870 5867 5862 5854 5850 5848 5845 5839 5833 5827 5821 5815 5809 5803 5799 5794 5789 5782 5776 5770 5764 5757 5751 5746 5741 5736 5731 5724 5719 5715 5710 5705
5931 5930 5927 5925 5923 5920 5917 5915 5909 5907 5902 5897 5893 5888 5884 5879 5874 5869 5864 5858 5855 5850 5846 5841 5833 5829 5825 5817 5810 5804 5798 5794 5790 5784 5778 5772 5766 5759 5752 5747 5741 5736 5731 5725 5719 5714 5709 5704 5699